Location: Bathurst
(33.4193°S, 149.5775°E)
Time: 02:31:35
(UTC+10:00)

A-11 Canister half - Pass Details

Date: 20 June 2021
Orbit: 1513 x 1687 km, 47.2° (Epoch: 28 July)

Event Time Altitude Azimuth Distance (km) Brightness Sun altitude
Rises 20:09:49 0° 243° (WSW) 4,760 12.3 -38.4°
Reaches altitude 10° 20:13:12 10° 235° (SW) 3,801 11.5 -39.1°
Enters shadow 20:20:08 36° 192° (SSW) 2,370 9.9 -40.5°
